Regional Weather Roundup
Issued by NWS Green Bay, WI

Home | Current Version | Previous Version | Text Only | Print | Product List | Glossary On
Versions: 1 2 3 4 5 6 7 8 9 10 11 12 13 14 15 16 17 18 19 20 21 22 23 24 25 26 27 28 29 30 31 32 33 34 35 36 37 38 39 40 41 42 43 44 45 46 47 48 49 50
000
ASUS43 KGRB 300000
RWRGRB

NORTH-CENTRAL AND NORTHEAST WISCONSIN REGIONAL WEATHER ROUNDUP
NATIONAL WEATHER SERVICE GREEN BAY WI
700 PM CDT THU SEP 29 2016

WIZ005-009-010>012-018-019-300100-
NORTH CENTRAL WISCONSIN

CITY           SKY/WX    TMP DP  RH WIND       PRES   REMARKS
IRONWOOD       CLOUDY    56  53  90 NE8       30.46S
MANITOWISH WTR NOT AVBL
ARBOR VITAE    NOT AVBL
EAGLE RIVER    NOT AVBL
LAND O LAKES   NOT AVBL
RHINELANDER    CLEAR     60  55  83 N6        30.43R
PHILLIPS       NOT AVBL
ANTIGO         NOT AVBL
TOMAHAWK       NOT AVBL
MERRILL        NOT AVBL
$$

WIZ013-073-300100-
NORTHEAST WISCONSIN

CITY           SKY/WX    TMP DP  RH WIND       PRES   REMARKS
IRON MOUNTAIN  CLEAR     60  48  64 N7        30.41R
MARINETTE      CLEAR     62  57  83 NE9       30.38R
$$

WIZ017-030-035>037-045-300100-
CENTRAL WISCONSIN

CITY           SKY/WX    TMP DP  RH WIND       PRES   REMARKS
MEDFORD        NOT AVBL
WAUSAU         CLEAR     64  50  60 NE6       30.36S
MOSINEE        PTCLDY    63  52  67 N6        30.38S
MARSHFIELD     CLEAR     65  49  56 NE7       30.36S
WISC RAPIDS    CLEAR     63  50  62 NE5       30.36S
STEVENS POINT  NOT AVBL
WAUPACA        NOT AVBL
SHAWANO        NOT AVBL
CLINTONVILLE   NOT AVBL
WAUTOMA        CLEAR     63  48  58 NE5       30.34R
$$

WIZ038-039-048-051-300100-
FOX VALLEY

CITY           SKY/WX    TMP DP  RH WIND       PRES   REMARKS
NWS GREEN BAY  CLEAR     62  54  74 NE14      30.34S
APPLETON       PTCLDY    63  46  55 NE13G20   30.33R
OSHKOSH        CLEAR     64  51  62 N16G23    30.32R
FOND DU LAC    CLEAR     63  53  70 NE12      30.32R
$$

WIZ022-050-052-300100-
EAST CENTRAL WISCONSIN

CITY           SKY/WX    TMP DP  RH WIND       PRES   REMARKS
EPHRAIM        NOT AVBL
WASHINGTON ISL NOT AVBL
STURGEON BAY   NOT AVBL
MANITOWOC      MOCLDY    63  55  77 MISG      30.32S
SHEBOYGAN      PTCLDY    61  56  83 N15       30.30S
$$

LMZ563-521-522-541>543-300100-
LAKESHORE

STATION/POSITION TIME  TEMP    WIND        PRES    VSBY  WAVE
                       AIR SEA DIR/SP/G                  HT/PER
                 (UTC) (F)     (DEG/KT/KT) (MB)    (MI)  (FT/S)
SHEBOYGAN LKSHOR 2300   61      10/ 20/ 23 1025.9R
KEWAUNEE LKSHORE 2300   61      30/  8/ 14 1026.5R
NORTHPORT PIER   2300   65      50/  8/ 13 1027.8S
N MID LAKE BUOY  2250   66 65   60/ 16/ 19 1027.5S         3/ 4
S GREEN BAY BUOY 2300   64 63   50/ 12/ 14 1027.0R
SISTER BAY LKSHO 2308   66     110/  5/  9   N/A
CHAMBERS ISLAND  2300   65      30/ 11/ 15 1027.8R
MENOMINEE LKSHOR 2300   64      40/ 13/ 14 1027.1R
$$



USA.gov is the U.S. government's official web portal to all federal, state and local government web resources and services.